GONETS D1 8

导读 | 星芒AI

GONETS D1-8 是一颗俄罗斯的低轨道通信卫星,属于 Gonets 系列,主要用于提供中继通信服务。该卫星由俄罗斯航天局(Roscosmos)运营,支持数据传输和短消息服务,广泛应用于偏远地区通信。它于2018年发射,运行在近地轨道,是俄罗斯构建自主卫星通信系统的重要组成部分。

基本信息
目录编号:
27059
目录名称:
GONETS D1 8
国际标识:
2001-058E
轨道中心:
EARTH
卫星名称:
GONETS D1 8
卫星全名:
--
卫星状态:
在轨 (已飞行8751 天)
发射日期:
2001-12-28 UTC
国别 :
俄罗斯(独联体) (CIS)
星等 :
--
轨道信息
数据来源 国际轨道数据 AOE轨道数据
星历时间 2025-12-13T09:19:47+0800
8小时前
查看轨道信息
2025-12-10T04:00:00+0800
3天前
查看轨道信息
半长轴 7794.687km 7794.686km
偏心率 0.0001608 0.0001602
轨道倾角 82.542° 82.541°
近地点辐角 348.347° 357.850°
升交点赤经 331.951° 334.015°
平近点角 11.758° 136.232°
近地点 1415.298km 1415.302km
远地点 1417.806km 1417.8km
周期 114.145分钟 114.145分钟
每日圈数 12.61551 12.615511
详细信息
使用方式:
暂无
2D轨道图
3D轨道图
轨道高度分析图
轨道倾角分析图
轨道综合分析图
查看轨道综合分析图